This is the latest recevied weather packets stored in our database for station/object KC4GS-13. If no packets are shown the sender has not sent any weather packets the latest 10 day(s).
| Time | Temp. | Humidity | Pressure | Rain* | Wind** | Luminosity | Snow |
|---|---|---|---|---|---|---|---|
| 1777910898 | 24.44° C | 35% | 1018.9 hPa | 0 mm | - | 593 W/m² | - |
| 1777910595 | 24.44° C | 33% | 1018.9 hPa | 0 mm | - | 472 W/m² | - |
| 1777910292 | 23.89° C | 34% | 1019 hPa | 0 mm | - | 854 W/m² | - |
| 1777909989 | 23.89° C | 34% | 1019 hPa | 0 mm | - | 878 W/m² | - |
| 1777909686 | 23.33° C | 36% | 1019.3 hPa | 0 mm | - | 848 W/m² | - |
| 1777909383 | 23.89° C | 35% | 1019.1 hPa | 0 mm | - | 882 W/m² | - |
| 1777909081 | 23.89° C | 38% | 1019.1 hPa | 0 mm | - | 908 W/m² | - |
| 1777908779 | 23.33° C | 36% | 1019.1 hPa | 0 mm | - | 910 W/m² | - |
| 1777908475 | 22.78° C | 38% | 1019.1 hPa | 0 mm | - | 928 W/m² | - |
| 1777908172 | 22.78° C | 39% | 1018.9 hPa | 0 mm | - | 481 W/m² | - |
| 1777907868 | 22.22° C | 38% | 1019.2 hPa | 0 mm | - | 744 W/m² | - |
| 1777907564 | 22.22° C | 39% | 1019.1 hPa | 0 mm | - | 826 W/m² | - |
| 1777907260 | 21.67° C | 43% | 1019.1 hPa | 0 mm | - | 868 W/m² | - |
| 1777906956 | 21.67° C | 42% | 1019.2 hPa | 0 mm | - | 812 W/m² | - |
| 1777906654 | 21.11° C | 42% | 1019.2 hPa | 0 mm | - | 747 W/m² | - |
| 1777906350 | 21.11° C | 47% | 1019.4 hPa | 0 mm | - | 425 W/m² | - |
| 1777906047 | 20.56° C | 43% | 1019.4 hPa | 0 mm | - | 347 W/m² | - |
| 1777905743 | 20.56° C | 45% | 1019.4 hPa | 0 mm | - | 234 W/m² | - |
| 1777905441 | 20° C | 50% | 1019.5 hPa | 0 mm | - | 101 W/m² | - |
| 1777905139 | 20° C | 50% | 1019.2 hPa | 0 mm | - | 195 W/m² | - |
| 1777904835 | 19.44° C | 50% | 1019.3 hPa | 0 mm | - | 63 W/m² | - |
| 1777904532 | 19.44° C | 49% | 1019.5 hPa | 0 mm | - | 235 W/m² | - |
| 1777904229 | 18.89° C | 50% | 1019.4 hPa | 0 mm | - | 186 W/m² | - |
| 1777903926 | 18.89° C | 53% | 1019.5 hPa | 0 mm | - | 76 W/m² | - |
| 1777903623 | 18.89° C | 53% | 1019.4 hPa | 0 mm | - | 108 W/m² | - |
* Rain latest hour (hover to see other rain measurements)
** Current wind speed in m/s (hover to see current wind gust speed)